Current Version              Previous Version:    01  02  03  04  05  06  07  08  09  10  11  12  13  14  15  16  17  18  19  20  21  22  23  24  25  26  27  28  29  30  
   31  32  33  34  35  36  37  38  39  40  41  42  43  44  45  46  47  48  49  50  51  52  53  54  55  56  57  58  59  60  

[Printable]
348
ASUS44 KFWD 190315
RWRTX
NORTH TEXAS HOURLY WEATHER ROUNDUP
NATIONAL WEATHER SERVICE FORT WORTH TX
900 PM CST THU DEC 18 2014

NOTE: "FAIR" INDICATES FEW OR NO CLOUDS BELOW 12,000 FEET WITH NO
SIGNIFICANT WEATHER AND/OR OBSTRUCTIONS TO VISIBILITY.

TXZ118-119-190400-
DALLAS/FORT WORTH METROPLEX

CITY           SKY/WX    TMP DP  RH WIND       PRES   REMARKS
DFW AIRPORT    CLOUDY    47  43  86 NE8       30.16S
DALLAS LOVE    CLOUDY    48  43  82 CALM      30.17S
FTW MEACHAM    CLOUDY    48  44  86 E7        30.16R
DAL-EXECUTIVE  CLOUDY    49  43  80 NE3       30.17R
FTW-ALLIANCE   CLOUDY    46  44  93 N7        30.16R
FTW-SPINKS     CLOUDY    47  44  87 E5        30.17S
ARLINGTON      CLOUDY    50  43  77 NE10      30.17R
GRAND PRAIRIE  CLOUDY    48  46  90 NE8       30.18S
ADDISON        CLOUDY    46  43  87 NE7       30.17S
MESQUITE       CLOUDY    46  44  93 CALM      30.18F
LANCASTER      CLOUDY    47  44  92 NE3       30.19R FOG
$$

TXZ091>094-102>105-117-120-121-131>134-190400-
NORTH CENTRAL TEXAS

CITY           SKY/WX    TMP DP  RH WIND       PRES   REMARKS
SHRMAN/DENISON CLOUDY    44  44 100 NE7       30.20R FOG     WCI  40
GAINESVILLE    CLOUDY    43  42  96 NE8       30.21R FOG     WCI  39
BOWIE          CLOUDY    44  44  99 NE3       30.18R FOG
BRIDGEPORT     CLOUDY    48  47  95 E5        30.18R
DECATUR        CLOUDY    45  45  98 NE8       30.17R FOG
DENTON         CLOUDY    46  44  93 NE6       30.18R
MCKINNEY       CLOUDY    46  44  93 NE6       30.19R
GREENVILLE     CLOUDY    45  43  93 CALM      30.19R FOG
ROCKWALL       CLOUDY    46  44  95 NE5       30.17S
TERRELL        CLOUDY    48  45  89 NE6       30.18S FOG
WAXAHACHIE     CLOUDY    47  46  99 NE6       30.18R
CLEBURNE       CLOUDY    48  45  87 NE7       30.16R
GRANBURY       CLOUDY    50  45  83 CALM      30.17S
$$

TXZ083>090-098>101-113>116-127>130-139>142-154-155-190400-
WESTERN NORTH TEXAS

CITY           SKY/WX    TMP DP  RH WIND       PRES   REMARKS
WICHITA FALLS  CLOUDY    44  42  93 N12       30.16F WCI  38
WF-KICKAPOO    CLOUDY    44  44  99 N9        30.18S WCI  39
VERNON         CLOUDY    45  38  75 NE5       30.18F
ABILENE        CLOUDY    46  40  79 NE8       30.15R
ABILENE-DYESS  MOCLDY    45  39  81 NE7       30.14R
BRECKENRIDGE   CLOUDY    48  43  81 NE7       30.16S
GRAHAM         CLOUDY    45  44  95 N5        30.15S
MINERAL WELLS  CLOUDY    48  45  89 CALM      30.16R
STEPHENVILLE   CLOUDY    47  44  87 NE8       30.17R
COMANCHE       CLOUDY    50  49  98 NE12      30.14R
BROWNWOOD      CLOUDY    50  46  87 NE10      30.13R
COLEMAN        CLOUDY    50  45  84 N10       30.11S
BRADY          CLEAR     55  48  76 NE15      30.07R HAZE
$$

TXZ143>147-156>162-174-175-190400-
CENTRAL TEXAS

CITY           SKY/WX    TMP DP  RH WIND       PRES   REMARKS
WACO           CLOUDY    49  46  90 NE12      30.14S
WACO-TSTC      CLOUDY    50  46  87 N6        30.15R
WACO-MCGREGOR  CLOUDY    48  43  81 NE14      30.14F
HILLSBORO      CLOUDY    48  45  87 NE10      30.15S
CORSICANA      CLOUDY    50  46  86 NE9       30.15F
MEXIA          CLOUDY    49  48  95 NE7       30.13S
HEARNE         CLOUDY    53  51  95 N8        30.12S FOG
CAMERON        CLOUDY    52  50  93 N14       30.10S FOG
TEMPLE         CLOUDY    48  43  81 NE10      30.12R
KILLEEN        CLOUDY    49  47  92 NE12      30.12R
KILLEEN-SKYLRK CLOUDY    50  43  76 NE12      30.10F
FORT HOOD      CLOUDY    49  47  90 NE13      30.11R FOG
GATESVILLE     CLOUDY    48  46  93 NE7       30.15S
HAMILTON       CLOUDY    49  48  96 E7        30.14R
LAMPASAS       CLOUDY    50  48  93 NE7       30.11
$$

TXZ095>097-106>112-122>126-135>138-148>153-164>167-190400-
EAST TEXAS

CITY           SKY/WX    TMP DP  RH WIND       PRES   REMARKS
PARIS          CLOUDY    45  43  93 NE6       30.20R
SULPHUR SPRNGS CLOUDY    46  46  97 E3        30.22R FOG
MOUNT PLEASANT CLOUDY    47  46  95 CALM      30.21R
MINEOLA        CLOUDY    48  46  93 NE3       30.19R FOG
TYLER          CLOUDY    49  46  90 NE7       30.15S
LONGVIEW       CLOUDY    49  46  90 NE7       30.16R
MARSHALL       CLOUDY    51  48  91 N3        30.19R
ATHENS         CLOUDY    46  46 100 NE7       30.14S FOG
PALESTINE      CLOUDY    51  50  95 NE5       30.16R FOG
JACKSONVILLE   CLOUDY    50  49  96 NE8       30.15R FOG
HENDERSON      CLOUDY    49  49  97 N7        30.16R FOG
NACOGDOCHES    CLOUDY    54  48  82 CALM      30.14R
LUFKIN         CLOUDY    57  50  77 E7        30.11F
$$

SUPPLEMENTAL OBSERVATIONS (CENTRAL)

CITY           SKY/WX    TMP DP  RH WIND       PRES   REMARKS
LAKE TEXOMA      N/A     45  41  87 NE5         N/A
CADDO GRASSLND   N/A     45  41  87 N2          N/A
PAT MAYSE LAKE   N/A     43  41  93 NW3         N/A
GREENVILLE       N/A     45  41  87 NE3         N/A
CEDAR HILL       N/A     46  43  87 NE7         N/A
ATHENS           N/A     48  45  87 N3          N/A
LAKE LIMESTONE   N/A     52  48  87 NE8         N/A
MCGREGOR         N/A     48  43  81 NE9         N/A
TEMPLE           N/A     50  45  81 NE13        N/A
$$

SUPPLEMENTAL OBSERVATIONS (WEST)

CITY           SKY/WX    TMP DP  RH WIND       PRES   REMARKS
MILLERS CREEK    N/A     43  39  87 NE3         N/A
POSSUM KINGDOM   N/A     46  43  87 N5          N/A
LBJ GRASSLAND    N/A     46  41  81 E7          N/A
GRANBURY         N/A     48  43  81 E3          N/A
COMANCHE         N/A     50  48  93 NE10        N/A
HAMBY            N/A     45  39  81 NE7         N/A
IVIE RESERVOIR   N/A     52  43  71 NE13        N/A
COLORADO BEND    N/A     48  43  81 E6G15       N/A
$$

SUPPLEMENTAL OBSERVATIONS (EAST)

CITY           SKY/WX    TMP DP  RH WIND       PRES   REMARKS
TEXARKANA        N/A     46  43  87 NE3         N/A
LINDEN           N/A     46  43  87 CALM        N/A
CADDO LAKE       N/A     48  45  87 N2          N/A
GILMER           N/A     46  43  87 NE3         N/A
HENDERSON        N/A     50  45  81 NE7         N/A
LUFKIN           N/A     54  48  82 MISG        N/A
N SABINE NF      N/A     52  48  87 MISG        N/A
$$

SUPPLEMENTAL OBSERVATIONS ARE A COLLECTION OF AUTOMATED INSTRUMENTS
THAT ARE MAINTAINED BY A VARIETY OF FEDERAL AND STATE AGENCIES.
CERTAIN ELEMENTS...SUCH AS HUMIDITY VALUES AND SUSTAINED WIND
SPEEDS...MAY BE APPROXIMATED.